QPF
0.00 0.00 0.00 0.00 0.00 0.00 0.00 0.00 0.00 0.00 0.00 0.00 0.00 0.00 0.00 0.00 0.00 0.00 0.00 0.00 0.00 0.00 0.00 0.00 0.00 0.00 0.00 0.00 0.00 0.00 0.00 0.00 0.00 0.00 0.00 0.00 0.00 0.00 0.00 0.00 0.02 0.06 0.08
0.00 0.00 0.00 0.00 0.00 0.00 0.00 0.00 0.00 0.00 0.00 0.00 0.00 0.00 0.00 0.00 0.00 0.00 0.00 0.00 0.00 0.00 0.00 0.00 0.00 0.00 0.00 0.00 0.00 0.00 0.00 0.00 0.00 0.00 0.00 0.00 0.00 0.00 0.00 0.00 0.00 0.01 0.02
0.00 0.00 0.00 0.00 0.00 0.00 0.00 0.00 0.00 0.00 0.00 0.00 0.00 0.00 0.00 0.00 0.00 0.00 0.00 0.00 0.00 0.00 0.00 0.00 0.00 0.00 0.00 0.00 0.00 0.00 0.00 0.00 0.00 0.00 0.00 0.00 0.00 0.00 0.00 0.00 0.00 0.01 0.02
0.00 0.00 0.00 0.00 0.00 0.00 0.00 0.00 0.00 0.00 0.00 0.00 0.00 0.00 0.00 0.00 0.00 0.00 0.00 0.00 0.00 0.00 0.00 0.00 0.00 0.00 0.00 0.00 0.00 0.00 0.00 0.00 0.00 0.00 0.00 0.00 0.00 0.00 0.01 0.03 0.03 0.00 0.02
0.00 0.00 0.00 0.00 0.00 0.00 0.00 0.00 0.00 0.00 0.00 0.00 0.00 0.00 0.00 0.00 0.00 0.00 0.00 0.00 0.00 0.00 0.00 0.00 0.00 0.00 0.00 0.00 0.00 0.00 0.00 0.00 0.00 0.00 0.00 0.00 0.00 0.01 0.01 0.06 0.04 0.00 0.00
0.00 0.00 0.00 0.00 0.00 0.00 0.00 0.00 0.00 0.00 0.00 0.00 0.00 0.00 0.00 0.00 0.00 0.00 0.00 0.00 0.00 0.00 0.00 0.00 0.00 0.00 0.00 0.00 0.00 0.00 0.00 0.00 0.00 0.00 0.00 0.00 0.00 0.00 0.01 0.01 0.00 0.00 0.00
0.00 0.00 0.00 0.00 0.00 0.00 0.00 0.00 0.00 0.00 0.00 0.00 0.00 0.00 0.00 0.00 0.00 0.00 0.00 0.00 0.00 0.00 0.00 0.00 0.00 0.00 0.00 0.00 0.00 0.00 0.00 0.00 0.00 0.00 0.00 0.00 0.00 0.01 0.00 0.01 0.00 0.01 0.03
0.00 0.00 0.00 0.00 0.00 0.00 0.00 0.00 0.00 0.00 0.00 0.00 0.00 0.00 0.00 0.00 0.00 0.00 0.00 0.00 0.00 0.00 0.00 0.00 0.00 0.00 0.00 0.00 0.00 0.00 0.00 0.00 0.00 0.00 0.00 0.00 0.00 0.00 0.00 0.00 0.00 0.01 0.06
0.00 0.00 0.00 0.00 0.00 0.00 0.00 0.00 0.00 0.00 0.00 0.00 0.00 0.00 0.00 0.00 0.00 0.00 0.00 0.00 0.00 0.00 0.00 0.00 0.02 0.01 0.00 0.00 0.00 0.00 0.00 0.00 0.00 0.00 0.00 0.00 0.00 0.00 0.00 0.00 0.00 0.03 0.12
0.00 0.00 0.00 0.00 0.00 0.00 0.00 0.00 0.00 0.00 0.00 0.00 0.00 0.00 0.00 0.00 0.00 0.00 0.00 0.00 0.00 0.00 0.00 0.02 0.04 0.05 0.03 0.00 0.01 0.04 0.03 0.01 0.00 0.00 0.00 0.00 0.00 0.00 0.01 0.08 0.05 0.05 0.13
0.00 0.00 0.00 0.00 0.00 0.00 0.00 0.00 0.00 0.00 0.00 0.00 0.00 0.00 0.00 0.00 0.00 0.00 0.00 0.00 0.05 0.06 0.08 0.10 0.06 0.02 0.00 0.01 0.02 0.02 0.04 0.02 0.00 0.00 0.00 0.00 0.00 0.00 0.00 0.05 0.04 0.05 0.05
0.00 0.00 0.00 0.00 0.00 0.00 0.00 0.00 0.00 0.00 0.00 0.00 0.00 0.00 0.00 0.00 0.00 0.00 0.00 0.00 0.12 0.18 0.12 0.11 0.05 0.04 0.01 0.00 0.00 0.01 0.02 0.01 0.00 0.00 0.00 0.00 0.00 0.00 0.00 0.00 0.01 0.01 0.02
0.00 0.00 0.00 0.00 0.00 0.00 0.00 0.00 0.00 0.00 0.00 0.00 0.00 0.00 0.00 0.00 0.00 0.00 0.00 0.02 0.04 0.06 0.03 0.02 0.00 0.00 0.00 0.00 0.00 0.00 0.00 0.00 0.00 0.00 0.00 0.00 0.00 0.02 0.01 0.01 0.01 0.02 0.01
0.00 0.00 0.00 0.00 0.00 0.00 0.00 0.00 0.00 0.00 0.00 0.00 0.00 0.00 0.00 0.00 0.00 0.00 0.02 0.04 0.00 0.00 0.09 0.15 0.06 0.00 0.00 0.00 0.00 0.00 0.02 0.03 0.00 0.00 0.00 0.00 0.01 0.01 0.01 0.01 0.00 0.01 0.01
0.00 0.00 0.00 0.00 0.00 0.00 0.00 0.00 0.00 0.00 0.00 0.00 0.00 0.00 0.00 0.00 0.00 0.00 0.00 0.00 0.01 0.00 0.06 0.16 0.11 0.10 0.08 0.06 0.01 0.00 0.03 0.00 0.01 0.00 0.00 0.00 0.00 0.01 0.01 0.01 0.00 0.00 0.00
0.00 0.00 0.00 0.00 0.00 0.00 0.00 0.00 0.00 0.00 0.00 0.00 0.00 0.00 0.00 0.00 0.00 0.00 0.00 0.00 0.00 0.02 0.10 0.07 0.05 0.20 0.05 0.02 0.00 0.00 0.00 0.00 0.00 0.00 0.00 0.00 0.00 0.00 0.02 0.02 0.02 0.00 0.00
0.00 0.00 0.00 0.00 0.00 0.00 0.00 0.00 0.00 0.00 0.00 0.00 0.00 0.00 0.00 0.00 0.00 0.00 0.00 0.00 0.00 0.06 0.07 0.10 0.18 0.11 0.01 0.00 0.00 0.00 0.00 0.00 0.00 0.00 0.00 0.00 0.00 0.00 0.00 0.02 0.05 0.03 0.00
0.00 0.00 0.00 0.00 0.00 0.00 0.00 0.00 0.00 0.00 0.00 0.00 0.00 0.00 0.00 0.00 0.00 0.00 0.00 0.00 0.00 0.10 0.02 0.01 0.12 0.06 0.01 0.00 0.00 0.00 0.00 0.00 0.00 0.00 0.00 0.00 0.00 0.00 0.00 0.03 0.09 0.05 0.01
0.00 0.00 0.00 0.00 0.00 0.00 0.00 0.00 0.00 0.00 0.00 0.00 0.00 0.00 0.00 0.00 0.00 0.00 0.00 0.00 0.00 0.04 0.04 0.05 0.06 0.06 0.04 0.00 0.01 0.02 0.00 0.00 0.00 0.00 0.00 0.00 0.00 0.00 0.00 0.01 0.05 0.07 0.03
0.00 0.00 0.00 0.00 0.00 0.00 0.00 0.00 0.00 0.00 0.00 0.00 0.00 0.00 0.00 0.00 0.00 0.00 0.00 0.00 0.01 0.05 0.02 0.06 0.05 0.03 0.00 0.02 0.03 0.04 0.02 0.00 0.00 0.00 0.00 0.00 0.00 0.00 0.00 0.00 0.01 0.03 0.02
0.00 0.00 0.00 0.00 0.00 0.00 0.00 0.00 0.00 0.00 0.00 0.00 0.00 0.00 0.00 0.00 0.00 0.00 0.02 0.00 0.01 0.01 0.03 0.05 0.04 0.01 0.00 0.06 0.12 0.04 0.01 0.00 0.00 0.00 0.00 0.00 0.00 0.00 0.00 0.00 0.00 0.00 0.00
0.00 0.00 0.00 0.00 0.00 0.00 0.00 0.00 0.00 0.00 0.00 0.00 0.00 0.00 0.00 0.00 0.00 0.00 0.01 0.01 0.00 0.02 0.02 0.03 0.03 0.02 0.01 0.01 0.08 0.03 0.02 0.01 0.00 0.00 0.00 0.00 0.00 0.00 0.00 0.00 0.00 0.00 0.00
0.00 0.00 0.00 0.00 0.00 0.00 0.00 0.00 0.00 0.00 0.00 0.00 0.00 0.00 0.00 0.00 0.00 0.00 0.00 0.03 0.00 0.01 0.06 0.11 0.07 0.00 0.02 0.00 0.02 0.02 0.02 0.03 0.00 0.00 0.00 0.00 0.01 0.00 0.02 0.03 0.01 0.00 0.00
0.00 0.00 0.00 0.00 0.00 0.00 0.00 0.00 0.00 0.00 0.00 0.00 0.00 0.00 0.00 0.00 0.00 0.00 0.00 0.03 0.02 0.04 0.02 0.01 0.03 0.02 0.00 0.00 0.00 0.05 0.05 0.08 0.07 0.05 0.00 0.00 0.00 0.00 0.03 0.03 0.02 0.00 0.01
0.00 0.00 0.00 0.00 0.00 0.00 0.00 0.00 0.00 0.00 0.00 0.00 0.00 0.00 0.00 0.00 0.00 0.00 0.00 0.01 0.01 0.00 0.00 0.02 0.02 0.03 0.04 0.00 0.00 0.02 0.04 0.09 0.05 0.11 0.01 0.00 0.00 0.00 0.00 0.00 0.00 0.00 0.00
0.00 0.00 0.00 0.00 0.00 0.00 0.00 0.00 0.00 0.00 0.00 0.00 0.00 0.00 0.00 0.00 0.00 0.00 0.00 0.00 0.00 0.00 0.00 0.01 0.02 0.01 0.05 0.02 0.01 0.01 0.02 0.01 0.02 0.07 0.02 0.05 0.00 0.00 0.01 0.01 0.00 0.00 0.00
MSLP
1013.67 1013.73 1013.92 1014.13 1014.38 1014.63 1014.84 1015.05 1015.17 1015.30 1015.40 1015.51 1015.63 1015.75 1015.85 1016.01 1016.13 1016.28 1016.46 1016.59 1016.73 1016.79 1016.81 1016.91 1016.99 1017.02 1017.08 1017.06 1017.13 1017.17 1017.27 1017.41 1017.49 1017.51 1017.59 1017.65 1017.72 1017.82 1017.90 1017.92 1018.09 1018.26 1018.40
1012.70 1013.35 1013.82 1014.14 1014.35 1014.64 1014.93 1015.12 1015.25 1015.40 1015.57 1015.71 1015.79 1015.97 1016.17 1016.30 1016.44 1016.58 1016.65 1016.69 1016.81 1016.88 1016.96 1017.07 1017.14 1017.19 1017.26 1017.27 1017.35 1017.41 1017.49 1017.58 1017.64 1017.64 1017.68 1017.72 1017.81 1017.91 1018.00 1018.03 1018.14 1018.28 1018.43
1012.74 1013.15 1013.64 1014.02 1014.24 1014.53 1014.88 1015.13 1015.32 1015.45 1015.62 1015.73 1015.85 1016.06 1016.24 1016.44 1016.62 1016.76 1016.78 1016.84 1016.99 1017.06 1017.12 1017.25 1017.31 1017.39 1017.42 1017.46 1017.56 1017.67 1017.76 1017.80 1017.80 1017.90 1017.93 1018.08 1018.13 1018.05 1018.07 1018.04 1018.19 1018.33 1018.58
1012.76 1013.22 1013.60 1013.99 1014.24 1014.52 1014.85 1015.12 1015.25 1015.37 1015.56 1015.78 1015.97 1016.11 1016.31 1016.48 1016.66 1016.78 1016.81 1016.94 1017.11 1017.24 1017.28 1017.37 1017.40 1017.51 1017.59 1017.66 1017.74 1017.84 1017.93 1018.05 1018.06 1018.13 1018.29 1018.28 1018.22 1018.13 1018.14 1018.03 1018.18 1018.33 1018.53
1013.07 1013.48 1013.75 1014.02 1014.33 1014.62 1014.90 1015.08 1015.18 1015.34 1015.61 1015.88 1016.05 1016.17 1016.36 1016.53 1016.65 1016.71 1016.85 1017.03 1017.16 1017.29 1017.36 1017.43 1017.42 1017.49 1017.51 1017.65 1017.76 1017.87 1017.94 1018.07 1018.18 1018.18 1018.42 1018.51 1018.45 1018.27 1018.28 1018.42 1018.47 1018.49 1018.56
1013.33 1013.63 1013.95 1014.16 1014.48 1014.73 1014.92 1015.05 1015.17 1015.39 1015.74 1015.97 1016.09 1016.22 1016.38 1016.56 1016.65 1016.76 1016.93 1017.07 1017.20 1017.28 1017.36 1017.42 1017.40 1017.41 1017.42 1017.53 1017.66 1017.75 1017.80 1017.99 1018.12 1018.22 1018.30 1018.36 1018.41 1018.44 1018.42 1018.35 1018.39 1018.56 1018.70
1013.67 1013.82 1014.00 1014.38 1014.71 1014.96 1015.09 1015.19 1015.34 1015.59 1015.85 1016.06 1016.20 1016.30 1016.42 1016.57 1016.67 1016.87 1016.97 1017.11 1017.21 1017.18 1017.25 1017.32 1017.39 1017.31 1017.32 1017.44 1017.52 1017.54 1017.63 1017.68 1017.77 1018.01 1018.18 1018.35 1018.41 1018.31 1018.38 1018.25 1018.27 1018.40 1018.63
1013.68 1013.85 1014.07 1014.34 1014.73 1014.99 1015.16 1015.29 1015.46 1015.69 1015.93 1016.09 1016.22 1016.33 1016.42 1016.53 1016.65 1016.81 1016.93 1017.00 1016.99 1016.99 1017.00 1017.02 1017.17 1017.18 1017.15 1017.16 1017.23 1017.26 1017.41 1017.42 1017.44 1017.66 1017.78 1017.95 1018.04 1018.11 1018.11 1018.11 1018.10 1018.20 1018.50
1013.63 1013.96 1014.15 1014.40 1014.68 1014.95 1015.12 1015.27 1015.54 1015.73 1015.94 1016.08 1016.16 1016.25 1016.34 1016.49 1016.57 1016.66 1016.76 1016.82 1016.75 1016.75 1016.68 1016.66 1016.66 1016.78 1016.86 1016.84 1016.89 1016.98 1017.14 1017.13 1017.23 1017.35 1017.39 1017.46 1017.60 1017.77 1017.65 1017.65 1017.89 1017.95 1018.18
1013.93 1014.09 1014.30 1014.48 1014.70 1014.89 1015.13 1015.31 1015.55 1015.73 1015.93 1016.05 1016.12 1016.16 1016.25 1016.42 1016.49 1016.54 1016.59 1016.64 1016.65 1016.56 1016.50 1016.36 1016.33 1016.30 1016.47 1016.59 1016.75 1016.77 1016.81 1016.84 1016.91 1016.99 1016.96 1016.93 1016.98 1017.15 1017.08 1017.19 1017.42 1017.83 1017.94
1014.27 1014.41 1014.46 1014.70 1014.87 1015.07 1015.27 1015.37 1015.50 1015.63 1015.75 1015.90 1016.03 1016.08 1016.18 1016.38 1016.55 1016.56 1016.57 1016.44 1016.34 1016.32 1016.13 1016.15 1015.99 1016.07 1016.08 1016.19 1016.35 1016.46 1016.54 1016.65 1016.55 1016.65 1016.65 1016.61 1016.58 1016.68 1016.77 1016.79 1017.10 1017.38 1017.67
1014.14 1014.34 1014.58 1014.66 1014.88 1015.14 1015.21 1015.41 1015.54 1015.66 1015.71 1015.88 1016.03 1016.11 1016.22 1016.35 1016.49 1016.42 1016.37 1016.24 1016.15 1015.86 1015.92 1015.90 1015.90 1015.71 1015.79 1015.86 1016.10 1016.12 1016.15 1016.29 1016.35 1016.26 1016.21 1016.16 1016.22 1016.37 1016.40 1016.68 1016.96 1017.11 1017.35
1013.47 1014.19 1014.32 1014.65 1014.86 1015.11 1015.11 1015.33 1015.60 1015.70 1015.83 1015.91 1016.03 1016.15 1016.28 1016.28 1016.34 1016.31 1016.30 1016.08 1016.04 1015.79 1015.87 1015.78 1015.80 1015.66 1015.55 1015.62 1015.74 1015.71 1015.80 1015.87 1015.80 1015.82 1015.83 1015.77 1015.79 1015.89 1015.93 1016.26 1016.51 1016.79 1017.09
1013.40 1013.56 1014.09 1014.47 1014.79 1014.92 1015.04 1015.25 1015.33 1015.60 1015.76 1015.86 1015.87 1016.00 1016.24 1016.30 1016.27 1016.16 1016.17 1015.98 1015.84 1015.68 1015.73 1015.80 1015.90 1015.86 1015.74 1015.69 1015.78 1015.71 1015.57 1015.47 1015.34 1015.23 1015.24 1015.29 1015.48 1015.46 1015.56 1015.92 1016.27 1016.58 1016.76
1012.94 1013.27 1013.57 1014.08 1014.40 1014.63 1015.08 1015.09 1015.14 1015.27 1015.38 1015.44 1015.66 1015.73 1015.86 1015.98 1015.97 1015.78 1015.57 1015.48 1015.48 1015.46 1015.46 1015.43 1015.74 1015.64 1015.81 1015.86 1015.75 1015.46 1015.37 1015.29 1015.02 1014.91 1014.94 1014.97 1014.99 1015.13 1015.44 1015.92 1016.19 1016.38 1016.75
1012.23 1012.69 1013.09 1013.48 1013.81 1014.14 1014.46 1014.66 1014.78 1014.90 1014.86 1015.18 1015.30 1015.37 1015.44 1015.48 1015.49 1015.55 1015.34 1015.22 1015.27 1015.39 1015.22 1015.20 1015.40 1015.80 1015.81 1015.65 1015.54 1015.21 1014.79 1014.94 1014.97 1014.91 1014.99 1015.04 1014.79 1014.97 1015.30 1015.82 1016.29 1016.39 1016.44
1011.32 1011.77 1012.42 1012.78 1013.30 1013.72 1013.93 1014.09 1014.32 1014.34 1014.51 1014.73 1014.73 1014.83 1014.94 1015.03 1015.06 1015.23 1015.27 1015.25 1015.12 1014.97 1015.12 1015.04 1015.45 1015.40 1015.55 1015.50 1015.37 1015.18 1014.93 1014.57 1014.45 1014.68 1014.80 1014.91 1014.87 1015.05 1015.27 1015.52 1015.93 1016.30 1016.28
1010.59 1011.17 1011.64 1012.21 1012.71 1013.07 1013.36 1013.54 1013.83 1014.13 1014.17 1014.22 1014.34 1014.34 1014.45 1014.57 1014.73 1014.95 1015.15 1015.05 1014.95 1015.04 1014.67 1014.97 1015.40 1015.59 1015.62 1015.33 1015.09 1015.15 1014.83 1014.59 1014.46 1014.43 1014.77 1014.92 1014.90 1014.83 1015.07 1015.20 1015.69 1015.93 1016.19
1009.48 1010.24 1010.94 1011.55 1011.86 1012.24 1012.79 1013.08 1013.36 1013.59 1013.86 1013.85 1013.91 1014.03 1014.16 1014.35 1014.45 1014.70 1014.61 1014.63 1014.72 1014.74 1015.06 1015.07 1015.39 1015.42 1015.59 1015.47 1015.36 1015.55 1014.97 1014.78 1014.92 1014.45 1014.58 1014.60 1014.56 1014.73 1014.82 1015.02 1015.31 1015.59 1015.78
1008.77 1009.29 1009.85 1010.56 1011.06 1011.67 1012.34 1012.91 1013.32 1013.66 1013.73 1013.74 1013.67 1013.70 1013.84 1013.95 1013.99 1014.22 1014.21 1014.34 1014.51 1014.71 1014.82 1015.06 1015.17 1015.52 1015.40 1015.64 1015.67 1015.52 1015.18 1014.95 1015.03 1014.92 1014.87 1014.62 1015.07 1014.56 1014.51 1014.86 1015.02 1015.41 1015.61
1008.34 1008.83 1009.28 1009.93 1010.36 1011.19 1012.05 1012.59 1013.05 1013.28 1013.38 1013.39 1013.34 1013.36 1013.45 1013.49 1013.59 1013.78 1013.77 1014.10 1014.40 1014.63 1014.67 1014.82 1015.02 1015.36 1015.56 1015.71 1015.92 1015.85 1015.41 1015.12 1014.99 1015.10 1015.11 1014.98 1014.94 1014.57 1014.54 1014.66 1014.76 1015.12 1015.36
1007.45 1008.00 1008.51 1008.95 1009.60 1010.23 1010.94 1011.53 1012.15 1012.44 1012.66 1012.76 1012.74 1012.89 1012.95 1013.05 1013.06 1013.26 1013.53 1013.69 1014.30 1014.50 1014.72 1014.84 1014.84 1015.20 1015.27 1015.42 1015.81 1016.21 1015.98 1015.46 1015.13 1014.95 1015.05 1014.82 1014.95 1014.96 1014.72 1014.70 1014.81 1014.98 1015.06
1006.65 1007.18 1007.77 1008.20 1008.78 1009.49 1010.22 1011.24 1011.87 1012.25 1012.60 1012.81 1012.74 1012.68 1012.64 1012.63 1012.62 1012.80 1012.96 1013.54 1014.01 1014.19 1014.64 1014.87 1014.69 1015.02 1015.20 1015.14 1015.29 1015.75 1016.26 1016.35 1015.80 1014.95 1014.87 1014.82 1014.71 1014.88 1014.41 1014.39 1014.47 1014.68 1014.90
1005.21 1006.38 1007.20 1007.85 1008.39 1009.11 1009.92 1010.59 1011.14 1011.62 1012.26 1012.21 1012.09 1012.11 1012.27 1012.21 1012.23 1012.28 1012.53 1013.10 1013.62 1013.89 1014.08 1013.98 1014.20 1014.32 1014.76 1014.99 1015.20 1015.18 1015.45 1015.76 1015.91 1015.41 1014.64 1014.67 1014.70 1014.66 1014.39 1014.13 1014.20 1014.22 1014.31
1005.02 1005.70 1006.55 1007.41 1008.04 1008.60 1009.41 1009.83 1010.51 1011.18 1011.51 1011.61 1011.71 1011.84 1011.87 1011.87 1011.78 1011.79 1011.89 1012.53 1013.11 1013.47 1013.38 1013.68 1013.96 1014.19 1014.28 1014.40 1014.63 1014.85 1015.27 1015.40 1015.53 1015.74 1015.47 1015.02 1014.58 1014.27 1014.03 1014.09 1013.89 1013.78 1013.90
1004.32 1005.11 1005.84 1006.74 1007.44 1008.08 1008.80 1009.38 1009.91 1010.43 1010.96 1011.48 1011.52 1011.44 1011.44 1011.37 1011.53 1011.61 1011.69 1012.05 1012.33 1012.75 1013.02 1013.00 1013.36 1013.47 1013.54 1013.67 1014.00 1014.21 1014.36 1014.78 1014.94 1015.15 1015.38 1015.36 1014.89 1014.60 1014.36 1014.15 1013.92 1013.46 1013.36
Thickness
5786 5787 5783 5781 5780 5778 5776 5775 5775 5775 5775 5774 5773 5772 5771 5769 5767 5766 5765 5765 5764 5763 5764 5763 5762 5762 5762 5763 5763 5762 5759 5757 5756 5755 5753 5753 5751 5750 5749 5749 5748 5747 5747
5796 5791 5786 5783 5782 5780 5778 5778 5777 5777 5776 5775 5775 5773 5770 5768 5766 5765 5765 5766 5765 5764 5764 5762 5762 5761 5761 5761 5760 5759 5758 5756 5755 5754 5753 5751 5750 5748 5746 5746 5745 5746 5746
5801 5796 5790 5787 5785 5783 5781 5780 5779 5779 5777 5777 5776 5773 5771 5769 5767 5766 5766 5766 5765 5764 5764 5763 5762 5762 5761 5760 5759 5757 5755 5754 5752 5751 5751 5750 5748 5748 5746 5746 5745 5746 5744
5803 5798 5794 5790 5788 5786 5784 5783 5783 5782 5781 5779 5776 5775 5772 5771 5769 5768 5768 5767 5765 5764 5764 5764 5764 5763 5762 5760 5758 5756 5754 5752 5751 5748 5748 5748 5747 5746 5746 5746 5744 5744 5745
5803 5799 5796 5793 5790 5788 5787 5786 5786 5785 5782 5780 5778 5776 5774 5772 5771 5771 5770 5768 5767 5766 5766 5765 5766 5765 5764 5762 5760 5758 5755 5753 5751 5750 5749 5747 5746 5746 5744 5742 5742 5742 5744
5804 5800 5796 5794 5792 5790 5789 5788 5788 5787 5784 5781 5780 5778 5776 5774 5773 5773 5771 5770 5769 5768 5768 5767 5767 5766 5764 5762 5761 5760 5758 5755 5753 5752 5751 5750 5748 5746 5744 5743 5743 5742 5742
5803 5800 5798 5794 5792 5791 5790 5790 5789 5788 5786 5784 5782 5781 5779 5777 5776 5774 5773 5772 5771 5771 5770 5769 5768 5769 5767 5764 5763 5762 5760 5761 5759 5757 5756 5753 5750 5748 5746 5746 5745 5744 5742
5806 5802 5800 5798 5795 5793 5792 5791 5790 5789 5788 5787 5785 5784 5783 5781 5779 5778 5776 5775 5775 5774 5774 5774 5772 5771 5771 5769 5767 5766 5764 5763 5764 5763 5761 5759 5756 5754 5752 5750 5749 5746 5743
5807 5804 5802 5800 5798 5796 5795 5794 5792 5792 5791 5789 5788 5788 5786 5783 5782 5781 5780 5779 5779 5779 5779 5779 5778 5776 5776 5775 5774 5771 5769 5768 5768 5768 5767 5766 5763 5759 5758 5756 5753 5751 5745
5807 5804 5803 5802 5801 5798 5796 5795 5794 5793 5792 5791 5791 5790 5788 5786 5784 5784 5783 5782 5782 5782 5782 5782 5782 5782 5779 5779 5777 5776 5775 5774 5772 5772 5773 5773 5771 5766 5764 5763 5759 5755 5751
5804 5803 5803 5802 5801 5799 5797 5796 5794 5795 5794 5793 5793 5792 5790 5788 5786 5785 5785 5786 5786 5785 5783 5784 5785 5785 5785 5783 5782 5781 5779 5779 5779 5778 5777 5777 5775 5772 5768 5768 5764 5760 5757
5804 5804 5804 5803 5802 5800 5798 5797 5796 5796 5796 5795 5794 5794 5792 5790 5789 5788 5788 5789 5788 5789 5788 5788 5787 5789 5790 5789 5787 5786 5787 5786 5784 5784 5784 5783 5780 5776 5774 5770 5767 5765 5760
5811 5807 5808 5806 5803 5801 5800 5799 5798 5797 5796 5796 5795 5794 5793 5792 5791 5791 5791 5791 5791 5791 5791 5791 5791 5792 5795 5796 5795 5795 5794 5794 5793 5791 5788 5789 5787 5784 5781 5775 5771 5768 5763
5811 5813 5811 5808 5805 5803 5802 5801 5800 5798 5797 5797 5796 5795 5794 5793 5793 5794 5793 5793 5793 5793 5793 5793 5791 5792 5795 5796 5795 5797 5798 5799 5801 5799 5797 5794 5792 5790 5786 5781 5773 5770 5765
5816 5816 5815 5811 5808 5806 5803 5803 5802 5802 5800 5799 5798 5797 5796 5795 5796 5796 5797 5798 5796 5795 5795 5796 5794 5795 5793 5793 5794 5796 5798 5799 5801 5801 5800 5797 5794 5793 5789 5782 5775 5768 5763
5825 5821 5818 5815 5813 5809 5808 5805 5804 5804 5804 5801 5801 5800 5799 5799 5798 5797 5798 5798 5797 5795 5797 5798 5798 5794 5794 5794 5795 5795 5799 5796 5798 5797 5796 5795 5795 5793 5790 5784 5776 5768 5766
5831 5828 5823 5821 5817 5813 5811 5808 5807 5807 5806 5804 5805 5804 5802 5801 5801 5799 5798 5798 5797 5796 5795 5798 5795 5796 5796 5794 5796 5796 5797 5799 5798 5797 5794 5793 5793 5790 5789 5786 5780 5775 5770
5839 5831 5828 5824 5819 5816 5814 5812 5808 5806 5806 5807 5806 5806 5805 5804 5802 5800 5799 5799 5796 5795 5797 5796 5794 5792 5792 5794 5796 5795 5797 5797 5797 5796 5793 5790 5790 5790 5789 5788 5783 5779 5774
5849 5842 5835 5830 5825 5821 5816 5813 5810 5808 5805 5807 5807 5807 5805 5803 5802 5799 5800 5798 5798 5797 5795 5794 5792 5792 5789 5788 5790 5790 5793 5794 5792 5794 5789 5788 5789 5788 5789 5788 5785 5783 5779
5856 5851 5845 5838 5834 5827 5820 5815 5811 5807 5806 5806 5806 5806 5805 5804 5803 5800 5800 5797 5797 5796 5795 5792 5791 5788 5787 5784 5786 5788 5791 5791 5789 5788 5786 5782 5780 5786 5788 5788 5786 5782 5779
5859 5852 5847 5841 5837 5829 5820 5813 5808 5807 5807 5807 5807 5806 5805 5805 5803 5801 5800 5798 5794 5792 5792 5791 5789 5787 5784 5782 5780 5780 5784 5787 5785 5783 5780 5778 5779 5784 5785 5787 5785 5782 5780
5861 5856 5851 5848 5840 5835 5828 5822 5816 5812 5809 5808 5808 5806 5805 5805 5804 5801 5800 5798 5793 5790 5787 5787 5787 5782 5782 5782 5774 5770 5766 5774 5779 5778 5775 5779 5778 5777 5781 5784 5782 5782 5782
5865 5860 5855 5852 5846 5839 5832 5821 5814 5811 5807 5803 5804 5805 5805 5804 5804 5802 5800 5795 5791 5789 5784 5783 5784 5781 5776 5779 5778 5769 5757 5755 5763 5773 5774 5777 5779 5778 5782 5782 5781 5781 5781
5876 5868 5860 5853 5848 5840 5832 5823 5816 5809 5802 5804 5807 5807 5806 5804 5804 5802 5799 5795 5791 5788 5786 5787 5785 5783 5780 5775 5774 5773 5771 5766 5759 5760 5773 5773 5774 5776 5778 5781 5781 5781 5783
5878 5872 5862 5855 5849 5843 5834 5829 5821 5810 5809 5809 5807 5806 5805 5805 5804 5803 5801 5797 5792 5788 5788 5785 5783 5781 5781 5779 5775 5770 5767 5766 5763 5756 5755 5765 5771 5774 5777 5777 5782 5782 5781
5882 5876 5868 5856 5850 5845 5837 5831 5824 5817 5810 5804 5804 5804 5804 5804 5802 5801 5799 5798 5796 5790 5787 5787 5783 5782 5781 5781 5778 5774 5771 5765 5761 5757 5755 5755 5761 5765 5770 5773 5776 5780 5782